Simultaneous Nadir Overpasses (SNOs) Predictions

Prediction of SNOs between GOES-16 and TERRA Satellite Orbit:

Table of predicted SNOs for the next 14.0 days since TLE Epoch: 3/23/2024
Index Date Time (GOES-16) GOES-16 Lat,Lon TERRA Lat,Lon Distance(km) Time Diff (sec)
1 03/23/2024 15:09:02 0.04, -75.21 0.92, -79.45 481.27 80
2 03/25/2024 14:52:00 0.04, -75.23 0.04, -75.35 13.07 80
3 03/27/2024 14:37:37 0.04, -75.25 -0.81, -71.23 456.39 80
4 03/28/2024 02:57:45 -0.04, -75.24 -0.24, -76.12 101.14 80
5 03/30/2024 02:38:02 -0.04, -75.26 0.65, -72.02 368.38 80
6 03/30/2024 14:58:03 0.04, -75.28 0.36, -76.88 182.61 80
7 04/01/2024 14:43:39 0.03, -75.30 -0.52, -72.77 287.30 80
8 04/02/2024 03:03:47 -0.03, -75.29 -0.51, -77.67 269.90 80
9 04/04/2024 02:44:02 -0.02, -75.31 0.35, -73.55 200.75 80
10 04/04/2024 15:04:03 0.02, -75.33 0.64, -78.42 350.00 80
